Back to catalog

COSMOS 1249 COOLANT

AliveLEO
NORAD 26503·DEBRIS·🇷🇺 Russia

Launched Mar 5, 1981 from Baikonur Cosmodrome

Loading…

Next Passes (next 24 hours)

TLE

FreshSource: Space-Track

Epoch: Sep 13, 2026, 04:52 UTC

1 26503U 81021E   26256.20329066  .00000044  00000-0  10399-3 0  9990
2 26503  64.9578  64.5963 0061472 238.9819 296.7423 13.92183192345408

Track COSMOS 1249 COOLANT in real time with AllMySat

Download on the App Store